VA3XLC Weather Reports


Display with metric or nautical units.
time (UTC)temp
F
wind
direction
speed
MPH
gust
MPH
rain 1hr
in
rain 24hr
in
rain mn
in
humidity
%
barometer
mb
20260902100747 73 274 2.0 3.0 0.00 0.00 0.00 92 981.5
20260902100247 73 256 4.0 5.0 0.00 0.00 0.00 92 981.5
20260902095746 74 261 3.0 5.0 0.00 0.00 0.00 92 981.6
20260902094725 74 257 4.0 7.0 0.00 0.00 0.00 93 981.5
20260902094225 75 239 3.0 5.0 0.00 0.00 0.00 93 981.6
20260902093725 75 253 3.0 6.0 0.00 0.00 0.00 93 981.5
20260902093224 75 242 2.0 5.0 0.00 0.00 0.00 93 981.2
20260902092724 75 237 2.0 3.0 0.00 0.00 0.00 92 981.1
20260902092224 75 242 3.0 5.0 0.00 0.00 0.00 92 981.0
20260902091724 75 243 1.0 2.0 0.00 0.00 0.00 92 981.1
20260902091223 74 246 5.0 9.0 0.00 0.00 0.00 94 981.3
20260902090202 73 247 3.0 5.0 0.00 0.00 0.00 96 981.8
20260902085702 73 0 0.0 0.0 0.00 0.00 0.00 97 981.5
20260902085202 73 0 0.0 0.0 0.00 0.00 0.00 97 981.6
20260902084702 73 0 0.0 0.0 0.00 0.00 0.00 97 981.6
20260902083640 73 0 0.0 0.0 0.00 0.00 0.00 97 981.3
20260902083140 73 145 2.0 2.0 0.00 0.00 0.00 97 981.4
20260902082639 73 0 0.0 0.0 0.00 0.00 0.00 97 981.5
20260902082139 73 0 0.0 0.0 0.00 0.00 0.00 97 981.6
20260902081639 73 169 0.0 1.0 0.00 0.00 0.00 97 981.7
20260902081139 73 0 0.0 0.0 0.00 0.00 0.00 97 981.8
20260902080639 73 0 0.0 0.0 0.00 0.00 0.00 97 981.7
20260902080138 73 0 0.0 0.0 0.00 0.00 0.00 97 981.6
20260902075638 73 158 1.0 2.0 0.00 0.00 0.00 97 981.7
20260902075138 73 0 0.0 0.0 0.00 0.00 0.00 97 981.8
20260902074116 73 0 0.0 0.0 0.00 0.00 0.00 97 981.8
20260902073616 73 0 0.0 0.0 0.00 0.00 0.00 97 981.8
20260902073116 73 0 0.0 0.0 0.00 0.00 0.00 97 981.7
20260902072616 73 0 0.0 0.0 0.00 0.00 0.00 97 981.7
20260902072116 73 0 0.0 0.0 0.00 0.00 0.00 97 981.7
20260902071054 73 0 0.0 0.0 0.00 0.00 0.00 97 981.7
20260902070554 73 0 0.0 0.0 0.00 0.00 0.00 97 981.7
20260902070054 73 0 0.0 0.0 0.00 0.00 0.00 97 981.8
20260902065032 72 123 1.0 2.0 0.00 0.00 0.00 97 981.9
20260902064532 72 0 0.0 0.0 0.00 0.00 0.00 97 981.9
20260902064032 73 0 0.0 0.0 0.00 0.00 0.00 97 981.8
20260902063532 73 0 0.0 0.0 0.00 0.00 0.00 97 982.0
20260902063031 73 0 0.0 0.0 0.00 0.00 0.00 97 982.1
20260902062531 73 0 0.0 0.0 0.00 0.00 0.00 97 982.0
20260902062031 73 134 1.0 2.0 0.00 0.00 0.00 97 982.0
20260902061009 73 0 0.0 0.0 0.00 0.00 0.00 96 982.1
20260902060509 73 0 0.0 0.0 0.00 0.00 0.00 96 982.2
20260902060009 73 135 1.0 2.0 0.00 0.00 0.00 96 982.1
20260902054947 73 136 1.0 1.0 0.00 0.00 0.00 96 982.2
20260902054447 73 0 0.0 0.0 0.00 0.00 0.00 96 982.3
20260902053947 73 133 1.0 2.0 0.00 0.00 0.00 96 982.2
20260902053446 73 0 0.0 0.0 0.00 0.00 0.00 96 982.3
20260902052946 73 0 0.0 0.0 0.00 0.00 0.00 96 982.3
20260902052446 73 0 0.0 0.0 0.00 0.00 0.00 96 982.3
20260902051424 73 0 0.0 0.0 0.00 0.00 0.00 96 982.2
20260902050403 73 0 0.0 0.0 0.00 0.00 0.00 96 982.1
20260902045902 73 0 0.0 0.0 0.00 0.00 0.00 96 982.1
20260902045402 73 139 1.0 2.0 0.00 0.00 0.00 96 982.0
20260902044902 73 0 0.0 0.0 0.00 0.00 0.00 95 982.1
20260902044402 73 0 0.0 0.0 0.00 0.00 0.00 95 982.1
20260902043901 74 0 0.0 0.0 0.00 0.00 0.00 95 982.2
20260902043401 74 0 0.0 0.0 0.00 0.00 0.00 95 982.2
20260902042901 74 0 0.0 0.0 0.00 0.00 0.00 95 982.2
20260902041839 73 151 2.0 2.0 0.00 0.00 0.00 95 982.1
20260902041339 73 158 1.0 2.0 0.00 0.00 0.00 95 982.1
20260902040839 74 0 0.0 0.0 0.00 0.00 0.00 95 982.1
20260902035818 74 0 0.0 0.0 0.00 0.00 0.00 95 981.9
20260902035317 74 0 0.0 0.0 0.00 0.00 0.00 95 982.0
20260902034817 74 0 0.0 0.0 0.00 0.00 0.00 95 982.0
20260902033756 74 162 2.0 2.0 0.00 0.00 0.00 95 982.0
20260902033255 74 0 0.0 0.0 0.00 0.00 0.00 95 982.0
20260902032755 74 0 0.0 0.0 0.00 0.00 0.00 95 982.0
20260902032255 74 0 0.0 0.0 0.00 0.00 0.00 95 982.0
20260902031754 74 0 0.0 0.0 0.00 0.00 0.00 95 981.9
20260902031254 74 0 0.0 0.0 0.00 0.00 0.00 95 981.9
20260902030753 74 0 0.0 0.0 0.00 0.00 0.00 95 982.0
20260902030253 74 220 1.0 2.0 0.00 0.00 0.00 95 982.0
20260902025753 75 161 1.0 2.0 0.00 0.00 0.00 95 982.0
20260902025252 75 0 0.0 0.0 0.00 0.00 0.00 95 982.0
20260902024751 75 0 0.0 0.0 0.00 0.00 0.00 94 982.0
20260902024251 75 146 2.0 2.0 0.00 0.00 0.00 95 981.9
20260902023751 75 138 2.0 3.0 0.00 0.00 0.00 95 981.9
20260902022730 75 0 0.0 0.0 0.00 0.00 0.00 95 982.0
20260902022229 75 0 0.0 0.0 0.00 0.00 0.00 95 981.9
20260902021729 75 0 0.0 0.0 0.00 0.00 0.00 95 981.9
20260902021229 75 0 0.0 0.0 0.00 0.00 0.00 95 981.9
20260902020729 75 0 0.0 0.0 0.00 0.00 0.00 95 981.9
20260902020228 75 175 2.0 2.0 0.00 0.00 0.00 94 981.8
20260902015728 76 0 0.0 0.0 0.00 0.00 0.00 94 981.8
20260902015227 76 0 0.0 0.0 0.00 0.00 0.00 94 981.8
20260902014727 76 0 0.0 0.0 0.00 0.00 0.00 94 981.7
20260902014227 76 0 0.0 0.0 0.00 0.00 0.00 94 981.8
20260902013726 76 0 0.0 0.0 0.00 0.00 0.00 94 981.7
20260902012143 76 0 0.0 0.0 0.00 0.00 0.00 94 981.5
20260902011121 77 0 0.0 0.0 0.00 0.00 0.00 93 981.4
20260902010620 77 166 2.0 3.0 0.00 0.00 0.00 93 981.2
20260902010120 77 183 2.0 2.0 0.00 0.00 0.00 93 981.2
20260902005619 78 139 1.0 2.0 0.00 0.00 0.00 93 981.2
20260902005119 78 55 1.0 2.0 0.00 0.00 0.00 93 981.1
20260902003536 78 0 0.0 0.0 0.00 0.00 0.00 92 981.1
20260902003036 78 146 1.0 2.0 0.00 0.00 0.00 92 980.9
20260902002536 79 208 1.0 1.0 0.00 0.00 0.00 91 981.0
20260902002036 79 0 0.0 0.0 0.00 0.00 0.00 91 981.1
20260902001014 79 147 2.0 3.0 0.00 0.00 0.00 90 981.2
20260902000514 79 191 1.0 1.0 0.00 0.00 0.00 90 981.2
20260901235452 80 203 1.0 2.0 0.00 0.00 0.00 89 981.2
20260901234952 80 244 2.0 2.0 0.00 0.00 0.00 88 981.2
20260901234451 81 239 2.0 3.0 0.00 0.00 0.00 88 981.3
20260901233951 81 281 1.0 2.0 0.00 0.00 0.00 88 981.3
20260901233451 82 189 2.0 3.0 0.00 0.00 0.00 87 981.3
20260901232951 82 169 1.0 3.0 0.00 0.00 0.00 86 981.3
20260901232450 83 202 1.0 2.0 0.00 0.00 0.00 86 981.2
20260901231949 83 219 1.0 2.0 0.00 0.00 0.00 86 981.3
20260901231449 84 255 3.0 3.0 0.00 0.00 0.00 85 981.3
20260901230427 85 274 2.0 5.0 0.00 0.00 0.00 82 981.4
20260901225926 85 215 3.0 4.0 0.00 0.00 0.00 81 981.4
20260901225426 85 260 1.0 2.0 0.00 0.00 0.00 82 981.2
20260901224926 85 181 3.0 4.0 0.00 0.00 0.00 81 981.2
20260901224426 85 267 1.0 3.0 0.00 0.00 0.00 80 981.2
20260901223925 85 238 4.0 6.0 0.00 0.00 0.00 81 981.2
20260901223425 86 197 2.0 3.0 0.00 0.00 0.00 80 981.2
20260901222925 86 259 3.0 4.0 0.00 0.00 0.00 80 981.2
20260901222425 85 253 3.0 6.0 0.00 0.00 0.00 81 981.2
20260901221925 85 272 5.0 7.0 0.00 0.00 0.00 81 981.2
20260901221424 86 265 6.0 9.0 0.00 0.00 0.00 81 981.2
20260901220924 85 247 4.0 6.0 0.00 0.00 0.00 81 981.1
20260901220424 85 272 5.0 9.0 0.00 0.00 0.00 82 981.1
20260901215402 87 275 8.0 11.0 0.00 0.00 0.00 80 981.1
20260901214902 87 274 5.0 8.0 0.00 0.00 0.00 77 981.2
20260901214401 87 235 2.0 3.0 0.00 0.00 0.00 78 981.1
20260901213340 87 191 3.0 3.0 0.00 0.00 0.00 76 981.1
20260901212840 87 212 2.0 3.0 0.00 0.00 0.00 76 981.1
20260901212340 88 173 2.0 3.0 0.00 0.00 0.00 74 981.1
20260901211839 88 145 2.0 3.0 0.00 0.00 0.00 74 981.0
20260901210818 88 141 3.0 4.0 0.00 0.00 0.00 75 981.0
20260901210318 88 144 1.0 3.0 0.00 0.00 0.00 75 981.0
20260901205817 88 190 2.0 3.0 0.00 0.00 0.00 74 981.0
20260901205317 87 228 1.0 3.0 0.00 0.00 0.00 75 981.0
20260901204817 88 156 1.0 3.0 0.00 0.00 0.00 75 981.0
20260901204317 88 262 2.0 3.0 0.00 0.00 0.00 74 981.1
20260901203816 88 304 1.0 2.0 0.00 0.00 0.00 74 981.1
20260901203315 87 264 2.0 3.0 0.00 0.00 0.00 74 981.1
20260901202814 87 110 3.0 4.0 0.00 0.00 0.00 76 981.1
20260901202314 87 49 2.0 3.0 0.00 0.00 0.00 73 981.1
20260901201814 87 265 3.0 4.0 0.00 0.00 0.00 73 981.1
20260901201314 87 259 2.0 3.0 0.00 0.00 0.00 73 981.1
20260901200813 86 101 1.0 2.0 0.00 0.00 0.00 75 981.1
20260901200313 86 258 1.0 2.0 0.00 0.00 0.00 75 981.1
20260901195252 86 52 2.0 4.0 0.00 0.00 0.00 76 981.3
20260901194751 86 315 5.0 7.0 0.00 0.00 0.00 77 981.3
20260901194251 86 264 2.0 4.0 0.00 0.00 0.00 76 981.3
20260901193751 86 285 2.0 3.0 0.00 0.00 0.00 75 981.3
20260901193250 86 248 2.0 3.0 0.00 0.00 0.00 75 981.3
20260901192750 87 318 4.0 5.0 0.00 0.00 0.00 75 981.3
20260901192250 87 294 1.0 3.0 0.00 0.00 0.00 75 981.4
20260901191749 86 266 1.0 3.0 0.00 0.00 0.00 75 981.5
20260901191249 86 111 1.0 3.0 0.00 0.00 0.00 77 981.6
20260901190749 85 242 1.0 3.0 0.00 0.00 0.00 79 981.6
20260901190248 85 346 2.0 3.0 0.00 0.00 0.00 78 981.7
20260901185748 85 293 3.0 5.0 0.00 0.00 0.00 77 981.8
20260901184726 84 283 4.0 7.0 0.00 0.00 0.00 78 981.8
20260901184226 84 299 3.0 4.0 0.00 0.00 0.00 79 981.8
20260901183725 84 344 2.0 4.0 0.00 0.00 0.00 80 981.8
20260901183225 84 321 5.0 8.0 0.00 0.00 0.00 80 981.8
20260901182724 83 274 5.0 6.0 0.00 0.00 0.00 81 981.8
20260901182224 83 303 4.0 7.0 0.00 0.00 0.00 81 981.8
20260901181723 83 314 5.0 8.0 0.00 0.00 0.00 80 981.9
20260901180702 83 302 5.0 8.0 0.00 0.00 0.00 81 981.8
20260901180202 83 328 4.0 7.0 0.00 0.00 0.00 80 981.8
20260901175701 84 276 6.0 8.0 0.00 0.00 0.00 81 981.7
20260901175201 84 318 3.0 8.0 0.00 0.00 0.00 80 981.7
20260901174700 84 276 2.0 3.0 0.00 0.00 0.00 80 981.7
20260901174200 84 267 4.0 6.0 0.00 0.00 0.00 81 981.8
20260901173700 83 299 5.0 7.0 0.00 0.00 0.00 79 981.8
20260901173200 84 295 5.0 7.0 0.00 0.00 0.00 80 981.7
20260901172700 83 306 5.0 7.0 0.00 0.00 0.00 80 981.7
20260901172159 83 283 5.0 7.0 0.00 0.00 0.00 81 981.8
20260901170617 83 305 6.0 8.0 0.00 0.00 0.00 80 981.9
20260901170117 83 280 7.0 10.0 0.00 0.00 0.00 80 981.9
20260901165616 83 275 7.0 9.0 0.00 0.00 0.00 79 981.8
20260901165116 82 325 3.0 7.0 0.00 0.00 0.00 80 981.9
20260901164616 82 274 7.0 12.0 0.00 0.00 0.00 80 982.0
20260901164116 82 309 5.0 7.0 0.00 0.00 0.00 80 982.0
20260901163616 82 280 6.0 7.0 0.00 0.00 0.00 80 982.0
20260901163115 83 269 7.0 8.0 0.00 0.00 0.00 79 982.0
20260901162053 83 323 6.0 9.0 0.00 0.00 0.00 78 981.9
20260901161553 82 310 2.0 6.0 0.00 0.00 0.00 80 981.9
20260901161053 82 303 4.0 6.0 0.00 0.00 0.00 80 982.0
20260901160555 82 322 2.0 5.0 0.00 0.00 0.00 80 982.0
20260901160052 82 271 5.0 8.0 0.00 0.00 0.00 81 982.0
20260901155552 82 280 5.0 8.0 0.00 0.00 0.00 81 982.0
20260901155052 81 308 4.0 9.0 0.00 0.00 0.00 80 982.1
20260901154551 81 284 5.0 8.0 0.00 0.00 0.00 81 982.2
20260901154050 80 274 4.0 5.0 0.00 0.00 0.00 82 982.2
20260901153549 80 293 5.0 7.0 0.00 0.00 0.00 83 982.2
20260901153049 80 269 6.0 8.0 0.00 0.00 0.00 82 982.2
20260901152549 80 281 2.0 4.0 0.00 0.00 0.00 82 982.2
20260901151527 80 315 6.0 9.0 0.00 0.00 0.00 83 982.2
20260901151027 80 319 6.0 9.0 0.00 0.00 0.00 83 982.3
20260901150527 79 306 3.0 4.0 0.00 0.00 0.00 85 982.3
20260901150026 79 303 4.0 6.0 0.00 0.00 0.00 85 982.3
20260901143922 78 299 4.0 5.0 0.00 0.00 0.00 86 982.1
20260901142339 77 308 4.0 5.0 0.00 0.00 0.00 87 982.2
20260901141839 77 282 2.0 3.0 0.00 0.00 0.00 89 982.3
20260901140818 77 319 3.0 5.0 0.00 0.00 0.00 89 982.3
20260901140317 76 325 4.0 7.0 0.00 0.00 0.00 89 982.2
20260901135817 76 324 2.0 4.0 0.00 0.00 0.00 90 982.2
20260901135317 76 275 3.0 6.0 0.00 0.00 0.00 91 982.1
20260901134817 76 328 2.0 3.0 0.00 0.00 0.00 91 982.3
20260901134316 76 307 3.0 5.0 0.00 0.00 0.00 91 982.3
20260901133816 75 343 1.0 3.0 0.00 0.00 0.00 92 982.3
20260901133316 75 307 4.0 6.0 0.00 0.00 0.00 92 982.3
20260901132816 75 269 2.0 3.0 0.00 0.00 0.00 93 982.4
20260901132316 75 333 2.0 4.0 0.00 0.00 0.00 93 982.5
20260901131815 75 308 3.0 4.0 0.00 0.00 0.00 93 982.6
20260901131315 75 300 2.0 5.0 0.00 0.00 0.00 93 982.6
20260901130815 75 319 4.0 5.0 0.00 0.00 0.00 93 982.7
20260901130314 75 345 3.0 5.0 0.00 0.00 0.00 93 982.7
20260901125814 75 284 3.0 4.0 0.00 0.00 0.00 93 982.7
20260901125314 75 337 3.0 5.0 0.00 0.00 0.00 92 982.6
20260901124814 75 351 3.0 4.0 0.00 0.00 0.00 93 982.6
20260901124314 74 346 2.0 4.0 0.00 0.00 0.00 93 982.6
20260901123814 74 243 3.0 4.0 0.00 0.00 0.00 93 982.5
20260901123313 74 250 2.0 3.0 0.00 0.00 0.00 94 982.6
20260901122813 74 330 2.0 3.0 0.00 0.00 0.00 94 982.6
20260901122313 73 244 2.0 2.0 0.00 0.00 0.00 94 982.6
20260901121812 73 258 2.0 3.0 0.00 0.00 0.00 94 982.5
20260901121311 73 284 2.0 3.0 0.00 0.00 0.00 94 982.5
20260901120811 73 254 1.0 2.0 0.00 0.00 0.00 95 982.4
20260901120311 72 279 1.0 2.0 0.00 0.00 0.00 95 982.4
20260901115811 72 261 3.0 4.0 0.00 0.00 0.00 95 982.4
20260901115310 72 277 2.0 3.0 0.00 0.00 0.00 95 982.4
20260901114810 71 268 2.0 3.0 0.00 0.00 0.00 95 982.2
20260901114310 71 324 2.0 3.0 0.00 0.00 0.00 95 982.2
20260901113810 71 261 1.0 3.0 0.00 0.00 0.00 95 982.2
20260901113309 70 243 1.0 2.0 0.00 0.00 0.00 95 982.2
20260901112809 70 236 1.0 3.0 0.00 0.00 0.00 95 982.2
20260901112309 70 276 1.0 3.0 0.00 0.00 0.00 95 982.1
20260901111247 70 310 1.0 1.0 0.00 0.00 0.00 95 982.0
20260901110746 70 0 0.0 0.0 0.00 0.00 0.00 95 982.0
20260901110246 70 252 1.0 2.0 0.00 0.00 0.00 95 981.9
20260901105746 70 305 2.0 4.0 0.00 0.00 0.00 95 981.9
20260901105246 70 259 1.0 2.0 0.00 0.00 0.00 95 981.8
20260901104746 70 254 1.0 3.0 0.00 0.00 0.00 95 981.8
20260901104245 70 290 1.0 3.0 0.00 0.00 0.00 95 981.8
20260901103745 70 251 1.0 2.0 0.00 0.00 0.00 95 981.8
20260901103245 71 271 2.0 3.0 0.00 0.00 0.00 95 981.7
20260901102745 71 293 1.0 2.0 0.00 0.00 0.00 95 981.7
20260901101723 71 275 2.0 4.0 0.00 0.00 0.00 95 981.6
20260901101223 71 273 2.0 4.0 0.00 0.00 0.00 95 981.7